User: anonymous   Login
Location: Unspecified
(0.0000°N, 0.0000°E)
Time: 04:29:11
(UTC+00:00)
Language:

TDF 2 - Orbit

View from above orbital plane
View from above orbital plane
View from above satellite
View from above satellite

Ground track
Ground track

The orbit data is extracted from the following two-line orbital elements,

1 20705U 90063A   18292.62492595 -.00000176  00000-0  00000+0 0  9990
2 20705  14.6373  20.8057 0050230 251.6892 102.3606  0.98610990105674
Epoch (UTC): 19 October 2018 14:59:53
Eccentricity: 0.0050230
inclination: 14.6373°
perigee height: 36044 km
apogee height: 36472 km
right ascension of ascending node: 20.8057°
argument of perigee: 251.6892°
revolutions per day: 0.98610990
mean anomaly at epoch: 102.3606°
orbit number at epoch: 10567

The dashed part of the orbit path shows where the satellite is in the earth's shadow,  

DLR